[Iaude] MPEC K143: 2024 KF1 [a=2.45,e=0.64,i=23.6,H=23.9]
    mpec at cfa.harvard.edu 
    mpec at cfa.harvard.edu
       
    Thu May 30 23:57:35 EDT 2024
    
    
  
M.P.E.C. 2024-K143                                 Issued 2024 May 31, 03:56 UT
     The Minor Planet Electronic Circulars contain information on unusual
         minor planets, routine data on comets and natural satellites,
         and occasional editorial announcements.  They are published
    on behalf of Division F of the International Astronomical Union by the
          Minor Planet Center, Smithsonian Astrophysical Observatory,
                          Cambridge, MA 02138, U.S.A.
			  
             Prepared using the Tamkin Foundation Computer Network
                              MPC at CFA.HARVARD.EDU
            URL https://www.minorplanetcenter.net/    ISSN 1523-6714
                                    2024 KF1                                    
Observations:
     K24K01F*1C2024 05 29.19940612 43 31.840+38 43 00.05         21.50GVEK143G96
     K24K01F 1C2024 05 29.20502812 43 24.416+38 42 40.61         21.45GVEK143G96
     K24K01F 1C2024 05 29.21066412 43 16.684+38 42 20.09         20.90GVEK143G96
     K24K01F 1C2024 05 29.21629512 43 09.210+38 42 01.30         21.40GVEK143G96
     K24K01F KC2024 05 29.29059312 41 29.288+38 37 32.81         21.14GVEK143I52
     K24K01F KC2024 05 29.29361912 41 25.184+38 37 20.71         20.80GVEK143I52
     K24K01F KC2024 05 29.29664112 41 21.170+38 37 10.31         20.84GVEK143I52
     K24K01F KC2024 05 29.29966612 41 17.077+38 36 58.68         21.39GVEK143I52
     K24K01F KC2024 05 29.35994412 39 56.221+38 33 06.44         20.24GVEK143I52
     K24K01F KC2024 05 29.36298112 39 52.142+38 32 55.18         20.60GVEK143I52
     K24K01F KC2024 05 29.36601912 39 47.992+38 32 42.94         20.20GVEK143I52
     K24K01F KC2024 05 29.36904412 39 43.985+38 32 32.03         21.49GVEK143I52
     K24K01F KB2024 05 29.90474 12 27 26.62 +37 56 29.8                ZEK143106
     K24K01F KB2024 05 29.90954 12 27 19.63 +37 56 06.9                ZEK143106
     K24K01F KB2024 05 29.91433 12 27 12.64 +37 55 43.7                ZEK143106
     K24K01F KB2024 05 29.91912 12 27 05.60 +37 55 20.9                ZEK143106
     K24K01F KC2024 05 30.18100312 20 44.257+37 34 55.60         20.96GVEK143I52
     K24K01F KC2024 05 30.18257912 20 41.766+37 34 47.60         20.97GVEK143I52
     K24K01F KC2024 05 30.18415312 20 39.358+37 34 38.86               VEK143I52
     K24K01F KC2024 05 30.18573012 20 36.974+37 34 31.48         20.93GVEK143I52
     K24K01F KC2024 05 31.12699511 55 40.79 +35 57 21.3          21.4 GVEK143H21
     K24K01F KC2024 05 31.12908211 55 37.17 +35 57 05.5          21.1 GVEK143H21
     K24K01F KC2024 05 31.13761811 55 22.45 +35 56 01.5          21.2 GVEK143H21
Observer details:
106 Crni Vrh.  Observer H. Mikuz.  0.60-m f/3.3 reflector + CMO.
G96 Mt. Lemmon Survey.  Observer T. Beuden.  Measurers T. Beuden, V. F.
    Carvajal, D. Fay, J. B. Fazekas, D. C. Fuls, A. R. Gibbs, A. D. Grauer, H.
    Groeller, J. K. Hogan, R. A. Kowalski, S. M. Larson, G. J. Leonard, D.
    Rankin, R. L. Seaman, F. C. Shelly, K. W. Wierzchos.  1.5-m reflector +
    10K CCD.
H21 Astronomical Research Observatory, Westfield.  Observer R. Holmes.
    Measurers T. Linder, R. Holmes, L. Horn.  0.81-m f/4.0 astrograph + CCD.
I52 Steward Observatory, Mt. Lemmon Station.  Observer V. F. Carvajal.
    Measurers T. Beuden, V. F. Carvajal, D. Fay, J. B. Fazekas, D. C. Fuls, A.
    R. Gibbs, A. D. Grauer, H. Groeller, J. K. Hogan, R. A. Kowalski, S. M.
    Larson, G. J. Leonard, D. Rankin, R. L. Seaman, F. C. Shelly, K. W.
    Wierzchos.  1.0-m prime focus + CCD.
Orbital elements:
2024 KF1                                                 Earth MOID = 0.0197 AU
Epoch 2024 Mar. 31.0 TT = JDT 2460400.5                 MPC                     
M 335.26537              (2000.0)            P               Q                  
n   0.25722169     Peri.  222.32818     +0.34905605     +0.85664509             
a   2.4486741      Node    71.41040     -0.71598679     +0.50534097             
e   0.6368811      Incl.   23.62851     -0.60458480     -0.10387345             
P   3.83           H   23.91          G   0.15           U   9                  
Residuals in seconds of arc
240529 G96  0.3-  0.1+    240529 I52  0.5+  0.7-    240530 I52  0.4+  0.1+
240529 G96  1.1+  0.0     240529 I52  0.4+  0.0     240530 I52  0.4-  0.3+
240529 G96  0.9-  1.0-    240529 I52  0.6-  0.4-    240530 I52  0.2-  0.3-
240529 G96  0.2+  0.2-    240529 I52  0.0   0.6+    240530 I52  0.3+  0.5+
240529 I52  0.1-  0.1+    240529 106  0.3-  0.7+    240531 H21  0.0   0.1-
240529 I52  0.5-  0.6-    240529 106  0.2+  0.5+    240531 H21  0.2-  0.2-
240529 I52  0.1+  0.3+    240529 106  0.6+  0.1+    240531 H21  0.2+  0.3+
240529 I52  0.2-  0.0     240529 106  0.4+  0.1+
Ephemeris:
2024 KF1                 a,e,i = 2.45, 0.64, 24                  q = 0.8892
Date    TT    R. A. (2000) Decl.     Delta      r    Elong.  Phase     V
2024 05 01    15 29 36.1 +34 51 11   0.3582  1.2614   128.3    38.8    23.7
...
2024 05 16    14 54 38.7 +38 49 25   0.2082  1.1337   121.4    49.5    22.6
...
2024 05 24    14 02 10.1 +40 14 05   0.1328  1.0710   112.8    60.7    21.8
...
2024 05 30    12 25 14.2 +37 49 38   0.08253 1.0278    97.6    77.9    21.3
2024 05 31    11 59 17.9 +36 12 53   0.07562 1.0210    93.3    82.5    21.2
2024 06 01    11 29 59.9 +33 51 49   0.06949 1.0143    88.3    87.8    21.2
...
2024 06 07    08 13 43.8 +02 41 10   0.06195 0.9769    50.8   126.4    23.2
...
2024 06 15    06 04 42.2 -21 34 31   0.1197  0.9357    45.5   129.3    24.8
...
2024 06 30    05 03 27.9 -27 20 28   0.2658  0.8924    55.3   110.6    25.0
A. U. Tomatic                (C) Copyright 2024 MPC           M.P.E.C. 2024-K143
    
    
More information about the Iaude
mailing list